CW4340 Weather Reports


time (UTC)temp
C
wind
direction
speed
KPH
gust
KPH
rain 1hr
cm
rain 24hr
cm
rain mn
cm
humidity
%
barometer
mb
20260506110504 24 176 0.0 0.0 0.00 0.00 0.00 90 1009.7
20260506110003 24 180 0.0 0.0 0.00 0.00 0.00 91 1009.7
20260506105504 24 173 0.0 0.0 0.00 0.00 0.00 91 1009.7
20260506105004 24 188 0.0 0.0 0.00 0.00 0.00 91 1009.8
20260506104504 24 180 0.0 0.0 0.00 0.00 0.00 91 1009.8
20260506104004 24 182 0.0 0.0 0.00 0.00 0.00 91 1009.9
20260506103504 24 175 0.0 0.0 0.00 0.00 0.00 91 1009.8
20260506103004 24 175 0.0 0.0 0.00 0.00 0.00 91 1009.9
20260506102503 24 181 0.0 0.0 0.00 0.00 0.00 91 1009.9
20260506102004 24 186 0.0 0.0 0.00 0.00 0.00 91 1009.7
20260506101504 24 186 0.0 0.0 0.00 0.00 0.00 91 1009.7
20260506100503 24 175 0.0 0.0 0.00 0.00 0.00 91 1009.6
20260506095505 24 175 0.0 0.0 0.00 0.00 0.00 91 1009.5
20260506095003 24 174 0.0 0.0 0.00 0.00 0.00 91 1009.5
20260506094504 24 173 0.0 0.0 0.00 0.00 0.00 91 1009.5
20260506094004 24 176 0.0 0.0 0.00 0.00 0.00 91 1009.5
20260506093503 24 169 0.0 0.0 0.00 0.00 0.00 90 1009.4
20260506093004 24 174 0.0 0.0 0.00 0.00 0.00 90 1009.4
20260506092504 24 175 0.0 0.0 0.00 0.00 0.00 90 1009.2
20260506092003 24 173 0.0 0.0 0.00 0.00 0.00 90 1009.4
20260506091503 24 173 0.0 0.0 0.00 0.00 0.00 90 1009.4
20260506091004 24 174 0.0 0.0 0.00 0.00 0.00 90 1009.3
20260506090503 24 182 0.0 0.0 0.00 0.00 0.00 90 1009.2
20260506090004 24 170 0.0 0.0 0.00 0.00 0.00 90 1009.3
20260506085504 24 172 0.0 0.0 0.00 0.00 0.00 90 1009.3
20260506085004 24 171 0.0 0.0 0.00 0.00 0.00 90 1009.4
20260506084503 24 176 0.0 0.0 0.00 0.00 0.00 90 1009.5
20260506084004 24 177 0.0 0.0 0.00 0.00 0.00 90 1009.6
20260506083504 24 175 0.0 0.0 0.00 0.00 0.00 90 1009.6
20260506083004 24 171 0.0 0.0 0.00 0.00 0.00 90 1009.8
20260506082503 24 181 0.0 0.0 0.00 0.00 0.00 90 1009.8
20260506081504 24 178 0.0 0.0 0.00 0.00 0.00 90 1010.0
20260506081003 24 180 0.0 0.0 0.00 0.00 0.00 90 1010.0
20260506080503 24 187 0.0 0.0 0.00 0.00 0.00 89 1010.0
20260506073004 24 180 0.0 0.0 0.00 0.00 0.00 89 1010.3
20260506072504 24 180 0.0 0.0 0.00 0.00 0.00 89 1010.4
20260506072003 24 167 0.0 0.0 0.00 0.00 0.00 89 1010.4
20260506071004 24 172 0.0 0.0 0.00 0.00 0.00 88 1010.4
20260506070505 24 178 0.0 0.0 0.00 0.00 0.00 88 1010.5
20260506062503 24 186 0.0 0.0 0.00 0.00 0.00 88 1010.3
20260506062004 25 148 0.0 0.0 0.00 0.00 0.00 88 1010.3
20260506061503 25 201 0.0 0.0 0.00 0.00 0.00 88 1010.3
20260506061004 25 165 0.0 0.0 0.00 0.00 0.00 88 1010.3
20260506060504 25 175 0.0 0.0 0.00 0.00 0.00 88 1010.3
20260506051004 25 180 0.0 0.0 0.00 0.00 0.00 88 1010.3
20260506050504 25 169 0.0 0.0 0.00 0.00 0.00 88 1010.3
20260506045004 25 168 0.0 0.0 0.00 0.00 0.00 88 1010.2
20260506044504 25 186 0.0 0.0 0.00 0.00 0.00 88 1010.2
20260506043004 25 177 0.0 0.0 0.00 0.00 0.00 88 1010.1
20260506042003 25 177 0.0 0.0 0.00 0.00 0.00 87 1010.0
20260506041504 25 188 0.0 0.0 0.00 0.00 0.00 87 1010.1
20260506041004 25 178 0.0 1.6 0.00 0.00 0.00 87 1010.1
20260506040504 25 175 0.0 0.0 0.00 0.00 0.00 87 1010.2
20260506040004 25 178 0.0 0.0 0.00 0.00 0.00 87 1010.3
20260506035503 25 184 0.0 0.0 0.00 0.00 0.00 87 1010.3
20260506035004 25 172 0.0 0.0 0.00 0.00 0.00 87 1010.4
20260506034006 25 175 0.0 0.0 0.00 0.00 0.00 87 1010.2
20260506033504 25 190 0.0 0.0 0.00 0.00 0.00 87 1010.2
20260506033005 25 165 0.0 0.0 0.00 0.00 0.00 87 1010.0
20260506032005 25 174 0.0 0.0 0.00 0.00 0.00 87 1010.1
20260506031504 25 175 0.0 0.0 0.00 0.00 0.00 87 1010.0
20260506031004 25 182 0.0 0.0 0.00 0.00 0.00 87 1009.9
20260506030504 25 179 0.0 0.0 0.00 0.00 0.00 87 1009.9
20260506030003 25 171 0.0 0.0 0.00 0.00 0.00 87 1009.9
20260506025504 25 194 0.0 0.0 0.00 0.00 0.00 87 1009.6
20260506025004 25 165 0.0 0.0 0.00 0.00 0.00 87 1009.5
20260506024004 25 175 0.0 0.0 0.00 0.00 0.00 87 1009.4
20260506023503 25 182 0.0 0.0 0.00 0.00 0.00 87 1009.3
20260506023004 25 184 0.0 0.0 0.00 0.00 0.00 87 1009.1
20260506022503 25 170 0.0 0.0 0.00 0.00 0.00 87 1009.1
20260506022004 25 178 0.0 0.0 0.00 0.00 0.00 87 1009.0
20260506021503 25 176 0.0 0.0 0.00 0.00 0.00 87 1009.0
20260506021004 25 182 0.0 0.0 0.00 0.00 0.00 86 1009.0
20260506020504 25 190 0.0 0.0 0.00 0.00 0.00 86 1009.0
20260506015504 25 181 0.0 0.0 0.00 0.00 0.00 86 1008.7
20260506015004 25 172 0.0 0.0 0.00 0.00 0.00 86 1008.7
20260506014506 25 174 0.0 0.0 0.00 0.00 0.00 86 1008.7
20260506014004 25 175 0.0 0.0 0.00 0.00 0.00 86 1008.7
20260506013504 25 184 0.0 0.0 0.00 0.00 0.00 86 1008.6
20260506013004 25 177 0.0 0.0 0.00 0.00 0.00 86 1008.6
20260506012504 25 209 0.0 0.0 0.00 0.00 0.00 86 1008.6
20260506012004 25 181 0.0 0.0 0.00 0.00 0.00 86 1008.6
20260506011004 25 173 0.0 0.0 0.00 0.00 0.00 86 1008.5
20260506010504 25 173 0.0 0.0 0.00 0.00 0.00 86 1008.4
20260506005503 25 181 0.0 0.0 0.00 0.00 0.00 86 1008.5
20260506005004 26 168 0.0 0.0 0.00 0.00 0.00 85 1008.4
20260506004004 26 182 0.0 0.0 0.00 0.00 0.00 85 1008.3
20260506003004 26 178 0.0 0.0 0.00 0.00 0.00 85 1008.3
20260506002504 26 164 0.0 0.0 0.00 0.00 0.00 85 1008.3
20260506002004 26 182 0.0 0.0 0.00 0.00 0.00 85 1008.0
20260506001504 26 180 0.0 0.0 0.00 0.00 0.00 85 1008.1
20260506000503 26 187 0.0 0.0 0.00 0.00 0.00 85 1008.4
20260506000004 26 171 0.0 0.0 0.00 0.00 0.00 85 1008.4
20260505235504 26 175 0.0 0.0 0.00 0.00 0.00 85 1008.3
20260505235004 26 175 0.0 0.0 0.00 0.00 0.00 85 1008.3
20260505234504 26 175 0.0 0.0 0.00 0.00 0.00 84 1008.1
20260505234004 26 174 0.0 0.0 0.00 0.00 0.00 84 1008.2
20260505233004 26 175 0.0 0.0 0.00 0.00 0.00 84 1008.2
20260505232503 26 171 0.0 0.0 0.00 0.00 0.00 84 1008.0
20260505232004 26 200 0.0 0.0 0.00 0.00 0.00 84 1008.0
20260505231503 26 183 0.0 0.0 0.00 0.00 0.00 84 1008.1
20260505231005 26 145 0.0 0.0 0.00 0.00 0.00 84 1008.2
20260505230504 26 159 0.0 0.0 0.00 0.00 0.00 84 1008.3
20260505230004 26 171 0.0 0.0 0.00 0.00 0.00 84 1008.2
20260505225504 26 179 0.0 0.0 0.00 0.00 0.00 84 1008.2
20260505225005 26 166 0.0 0.0 0.00 0.00 0.00 84 1008.2
20260505224504 26 179 0.0 0.0 0.00 0.00 0.00 84 1008.2
20260505224004 26 179 0.0 0.0 0.00 0.00 0.00 84 1008.2
20260505223504 26 211 0.0 0.0 0.00 0.00 0.00 84 1008.1
20260505222504 26 178 0.0 0.0 0.00 0.00 0.00 84 1008.2
20260505221004 26 168 0.0 0.0 0.00 0.00 0.00 84 1008.3
20260505220504 27 173 0.0 0.0 0.00 0.00 0.00 84 1008.3
20260505215503 27 177 0.0 0.0 0.00 0.00 0.00 84 1008.4
20260505215003 26 156 0.0 0.0 0.00 0.00 0.00 84 1008.4
20260505214504 27 181 0.0 0.0 0.00 0.00 0.00 84 1008.4
20260505213504 27 180 0.0 0.0 0.00 0.00 0.00 83 1008.4
20260505213004 27 175 0.0 0.0 0.00 0.00 0.00 83 1008.5
20260505212504 27 180 0.0 0.0 0.00 0.00 0.00 83 1008.5
20260505212004 27 169 0.0 0.0 0.00 0.00 0.00 83 1008.6
20260505211504 27 164 0.0 0.0 0.00 0.00 0.00 83 1008.6
20260505211004 27 191 0.0 0.0 0.00 0.00 0.00 84 1008.7
20260505210504 27 174 0.0 0.0 0.00 0.00 0.00 84 1008.7
20260505210004 27 180 0.0 0.0 0.00 0.00 0.00 84 1008.8
20260505205504 26 174 0.0 0.0 0.00 0.00 0.00 84 1008.9
20260505205004 26 162 0.0 0.0 0.00 0.00 0.00 84 1009.0
20260505204504 26 184 0.0 0.0 0.00 0.00 0.00 84 1009.0
20260505204003 26 188 0.0 0.0 0.00 0.00 0.00 84 1009.1
20260505203504 26 180 0.0 0.0 0.00 0.00 0.00 83 1009.2
20260505202504 26 156 0.0 0.0 0.00 0.00 0.00 84 1009.2
20260505202004 26 179 0.0 0.0 0.00 0.00 0.00 84 1009.3
20260505201504 26 159 0.0 0.0 0.00 0.00 0.00 85 1009.3
20260505201004 26 173 0.0 0.0 0.00 0.00 0.00 85 1009.5
20260505200504 26 168 0.0 0.0 0.00 0.00 0.00 84 1009.5
20260505195503 26 165 0.0 0.0 0.00 0.00 0.00 84 1009.6
20260505195004 26 182 0.0 0.0 0.00 0.00 0.00 84 1009.7
20260505194504 26 170 0.0 0.0 0.00 0.00 0.00 84 1009.7
20260505193503 26 151 0.0 0.0 0.00 0.00 0.00 84 1009.7
20260505193004 26 190 0.0 0.0 0.00 0.00 0.00 84 1009.7
20260505192504 26 182 0.0 0.0 0.00 0.00 0.00 85 1009.7
20260505192004 26 176 0.0 0.0 0.00 0.00 0.00 85 1009.7
20260505191004 26 219 0.0 0.0 0.00 0.00 0.00 85 1009.8
20260505190505 26 167 0.0 0.0 0.00 0.00 0.00 84 1009.9
20260505185503 26 194 0.0 0.0 0.00 0.00 0.00 84 1009.8
20260505185005 26 162 0.0 0.0 0.00 0.00 0.00 84 1009.9
20260505184504 26 161 0.0 0.0 0.00 0.00 0.00 84 1009.9
20260505184004 26 173 0.0 0.0 0.00 0.00 0.00 84 1010.0
20260505183004 26 159 0.0 1.6 0.00 0.00 0.00 84 1010.1
20260505182504 26 141 0.0 0.0 0.00 0.00 0.00 84 1010.2
20260505182004 26 180 0.0 0.0 0.00 0.00 0.00 84 1010.1
20260505181504 26 178 0.0 0.0 0.00 0.00 0.00 84 1010.1
20260505181004 26 174 0.0 0.0 0.00 0.00 0.00 83 1010.2
20260505180503 26 178 0.0 0.0 0.00 0.00 0.00 83 1010.2
20260505180004 26 186 0.0 0.0 0.00 0.00 0.00 83 1010.2
20260505175504 26 178 0.0 0.0 0.00 0.00 0.00 83 1010.2
20260505174504 26 178 0.0 0.0 0.00 0.00 0.00 84 1010.2
20260505173504 26 173 0.0 0.0 0.00 0.00 0.00 84 1010.2
20260505173005 26 142 0.0 1.6 0.00 0.00 0.00 83 1010.3
20260505172504 26 178 0.0 0.0 0.00 0.00 0.00 83 1010.2
20260505172004 26 172 0.0 0.0 0.00 0.00 0.00 84 1010.2
20260505171504 26 180 0.0 0.0 0.00 0.00 0.00 84 1010.1
20260505171005 26 201 0.0 0.0 0.00 0.00 0.00 84 1010.2
20260505170004 25 190 0.0 0.0 0.00 0.00 0.00 86 1010.4
20260505165504 25 172 0.0 0.0 0.00 0.00 0.00 85 1010.5
20260505165004 25 157 0.0 0.0 0.00 0.00 0.00 86 1010.5
20260505164504 25 171 0.0 0.0 0.00 0.00 0.00 86 1010.5
20260505163504 25 172 0.0 0.0 0.00 0.00 0.00 86 1010.5
20260505162503 25 188 0.0 0.0 0.00 0.00 0.00 86 1010.5
20260505162004 25 176 0.0 0.0 0.00 0.00 0.00 85 1010.5
20260505161504 25 180 0.0 0.0 0.00 0.00 0.00 85 1010.6
20260505161004 25 189 0.0 0.0 0.00 0.00 0.00 85 1010.6
20260505160504 25 168 0.0 0.0 0.00 0.00 0.00 85 1010.6
20260505153004 25 201 0.0 0.0 0.00 0.00 0.00 84 1010.5
20260505152504 25 150 0.0 0.0 0.00 0.00 0.00 84 1010.4
20260505152004 24 147 0.0 0.0 0.00 0.00 0.00 85 1010.4
20260505151504 24 193 0.0 0.0 0.00 0.00 0.00 85 1010.1
20260505150504 24 177 0.0 0.0 0.00 0.00 0.00 85 1010.3
20260505140504 24 198 0.0 0.0 0.00 0.00 0.00 85 1010.4
20260505124504 22 173 0.0 0.0 0.00 0.00 0.00 87 1010.1
20260505124005 22 166 0.0 0.0 0.00 0.00 0.00 87 1009.9
20260505123504 22 175 0.0 0.0 0.00 0.00 0.00 87 1009.9
20260505123005 22 184 0.0 0.0 0.00 0.00 0.00 87 1009.9
20260505122505 22 179 0.0 0.0 0.00 0.00 0.00 88 1009.8
20260505122004 22 162 0.0 0.0 0.00 0.00 0.00 88 1009.9
20260505121504 22 194 0.0 0.0 0.00 0.00 0.00 88 1009.8
20260505121004 22 156 0.0 0.0 0.00 0.00 0.00 88 1009.8
20260505120504 22 165 0.0 0.0 0.00 0.00 0.00 88 1009.8
20260505115004 22 182 0.0 0.0 0.00 0.00 0.00 88 1009.7
20260505114504 21 178 0.0 0.0 0.00 0.00 0.00 88 1009.6
20260505114004 21 167 0.0 0.0 0.00 0.00 0.00 88 1009.7
20260505113504 21 174 0.0 0.0 0.00 0.00 0.00 88 1009.8
20260505113004 21 188 0.0 0.0 0.00 0.00 0.00 88 1009.7
20260505112504 21 183 0.0 0.0 0.00 0.00 0.00 88 1009.5
20260505112004 21 179 0.0 0.0 0.00 0.00 0.00 88 1009.6
20260505111004 21 155 0.0 0.0 0.00 0.00 0.00 88 1009.5